When you browse on this site, cookies collect data to enhance your experience and personalize the content and advertising you see.
Visit our Privacy Policy to learn more. By continuing to use the site, you agree to this use of cookies and data.
  • In Czech Republic
  • List of Countries
  • For 7 days
  • Water Temperature
  • Satellite Maps
  • Weather Map
  • Weather Widgets
  • user-avatar
    Login

    Hourly Weather Kitzbuhel

    Today, 24 January, Thursday

    Time Temperature Precipitation Wind Pressure Humidity
    00:00 -9°C° 0 mm 1 mps 661 mmHg 88%
    01:00 -10°C° 0 mm 1 mps 662 mmHg 87%
    02:00 -10°C° 0 mm 1 mps 662 mmHg 87%
    03:00 -10°C° 0 mm 1 mps 662 mmHg 88%
    04:00 -11°C° 0 mm 1 mps 662 mmHg 88%
    05:00 -11°C° 0 mm 1 mps 662 mmHg 88%
    06:00 -11°C° 0 mm 1 mps 663 mmHg 88%
    07:00 -11°C° 0 mm 1 mps 663 mmHg 89%
    08:00 -10°C° 0 mm 0 mps 664 mmHg 88%
    09:00 -8°C° 0 mm 0 mps 664 mmHg 88%
    10:00 -7°C° 0 mm 0 mps 665 mmHg 87%
    11:00 -6°C° 0 mm 1 mps 665 mmHg 87%
    12:00 -4°C° 0 mm 1 mps 665 mmHg 87%
    13:00 -3°C° 0 mm 1 mps 665 mmHg 87%
    14:00 -4°C° 0 mm 1 mps 665 mmHg 88%
    15:00 -4°C° 0 mm 1 mps 666 mmHg 89%
    16:00 -4°C° 0 mm 1 mps 666 mmHg 91%
    17:00 -7°C° 0 mm 1 mps 666 mmHg 92%
    18:00 -8°C° 0 mm 1 mps 666 mmHg 94%
    19:00 -9°C° 0 mm 0 mps 667 mmHg 96%
    20:00 -9°C° 0 mm 0 mps 667 mmHg 95%
    21:00 -9°C° 0 mm 1 mps 668 mmHg 94%
    22:00 -10°C° 0 mm 1 mps 668 mmHg 93%
    23:00 -10°C° 0.1 mm 1 mps 668 mmHg 93%

    Tomorrow, 25 January, Friday

    Time Temperature Precipitation Wind Pressure Humidity
    00:00 -10°C° 0.1 mm 1 mps 668 mmHg 93%
    01:00 -10°C° 0.1 mm 1 mps 668 mmHg 93%
    02:00 -10°C° 0.1 mm 1 mps 669 mmHg 93%
    03:00 -10°C° 0.1 mm 1 mps 669 mmHg 94%
    04:00 -10°C° 0.1 mm 1 mps 669 mmHg 94%
    05:00 -10°C° 0.1 mm 1 mps 669 mmHg 94%
    06:00 -10°C° 0.1 mm 1 mps 669 mmHg 94%
    07:00 -11°C° 0.1 mm 1 mps 670 mmHg 94%
    08:00 -10°C° 0.1 mm 1 mps 670 mmHg 93%
    09:00 -9°C° 0.1 mm 1 mps 671 mmHg 92%
    10:00 -8°C° 0.1 mm 1 mps 671 mmHg 91%
    11:00 -7°C° 0 mm 1 mps 671 mmHg 90%
    12:00 -6°C° 0 mm 1 mps 671 mmHg 88%
    13:00 -6°C° 0 mm 1 mps 671 mmHg 87%
    14:00 -6°C° 0.1 mm 1 mps 671 mmHg 88%
    15:00 -6°C° 0.1 mm 1 mps 671 mmHg 89%
    16:00 -6°C° 0.1 mm 1 mps 672 mmHg 90%
    17:00 -8°C° 0 mm 1 mps 672 mmHg 92%
    18:00 -9°C° 0 mm 1 mps 673 mmHg 93%
    19:00 -10°C° 0 mm 1 mps 673 mmHg 94%
    20:00 -10°C° 0 mm 1 mps 673 mmHg 92%
    21:00 -11°C° 0 mm 1 mps 674 mmHg 91%
    22:00 -11°C° 0 mm 1 mps 674 mmHg 89%
    23:00 -11°C° 0 mm 1 mps 674 mmHg 88%

    Day after tomorrow, 26 January, Saturday

    Time Temperature Precipitation Wind Pressure Humidity
    00:00 -11°C° 0 mm 1 mps 674 mmHg 86%
    01:00 -12°C° 0 mm 1 mps 674 mmHg 84%
    02:00 -11°C° 0 mm 1 mps 674 mmHg 82%
    03:00 -13°C° 0 mm 2 mps 674 mmHg 80%
    04:00 -13°C° 0 mm 2 mps 674 mmHg 78%
    05:00 -13°C° 0 mm 2 mps 674 mmHg 74%
    06:00 -12°C° 0 mm 2 mps 675 mmHg 71%
    07:00 -12°C° 0 mm 2 mps 675 mmHg 68%
    08:00 -9°C° 0 mm 2 mps 675 mmHg 68%
    09:00 -6°C° 0 mm 1 mps 675 mmHg 68%
    10:00 -3°C° 0 mm 1 mps 676 mmHg 69%
    11:00 -1°C° 0 mm 1 mps 675 mmHg 71%
    12:00 +1°C° 0 mm 1 mps 675 mmHg 73%
    13:00 +2°C° 0 mm 1 mps 675 mmHg 75%
    14:00 +1°C° 0 mm 0 mps 674 mmHg 76%
    15:00 0°C° 0 mm 0 mps 674 mmHg 77%
    16:00 0°C° 0 mm 0 mps 673 mmHg 78%
    17:00 0°C° 0 mm 1 mps 673 mmHg 76%
    18:00 -1°C° 0 mm 1 mps 673 mmHg 74%
    19:00 -4°C° 0 mm 2 mps 673 mmHg 73%
    20:00 -4°C° 0 mm 2 mps 673 mmHg 73%
    21:00 -4°C° 0 mm 2 mps 672 mmHg 73%
    22:00 -4°C° 0 mm 2 mps 672 mmHg 72%
    23:00 -4°C° 0 mm 2 mps 672 mmHg 73%

    27 January, Sunday

    Time Temperature Precipitation Wind Pressure Humidity
    00:00 -4°C° 0 mm 2 mps 671 mmHg 73%
    01:00 -4°C° 0 mm 2 mps 671 mmHg 74%
    02:00 -4°C° 0 mm 2 mps 670 mmHg 74%
    03:00 -4°C° 0 mm 2 mps 670 mmHg 74%
    04:00 -4°C° 0 mm 2 mps 669 mmHg 74%
    05:00 -4°C° 0 mm 2 mps 668 mmHg 74%
    06:00 -4°C° 0 mm 2 mps 668 mmHg 74%
    07:00 -5°C° 0 mm 2 mps 668 mmHg 73%
    08:00 -1°C° 0 mm 1 mps 667 mmHg 75%
    09:00 0°C° 0 mm 1 mps 667 mmHg 76%
    10:00 +1°C° 0 mm 1 mps 667 mmHg 78%
    11:00 +2°C° 0 mm 1 mps 666 mmHg 82%
    12:00 +3°C° 0 mm 1 mps 665 mmHg 86%
    13:00 +4°C° 0 mm 1 mps 665 mmHg 90%
    14:00 +3°C° 0 mm 1 mps 665 mmHg 89%
    15:00 +3°C° 0 mm 1 mps 664 mmHg 88%
    16:00 +3°C° 0 mm 1 mps 664 mmHg 87%
    17:00 +1°C° 0.1 mm 1 mps 664 mmHg 88%
    18:00 0°C° 0.1 mm 1 mps 664 mmHg 89%
    19:00 -1°C° 0.1 mm 1 mps 664 mmHg 90%
    20:00 -1°C° 0.3 mm 1 mps 664 mmHg 90%
    21:00 -1°C° 0.3 mm 1 mps 664 mmHg 89%
    22:00 -1°C° 0.3 mm 1 mps 664 mmHg 89%
    23:00 -1°C° 0.2 mm 1 mps 664 mmHg 89%

    28 January, Monday

    Time Temperature Precipitation Wind Pressure Humidity
    00:00 -2°C° 0.2 mm 1 mps 663 mmHg 89%
    01:00 -2°C° 0.2 mm 1 mps 663 mmHg 89%
    02:00 -2°C° 0.2 mm 1 mps 663 mmHg 89%
    03:00 -2°C° 0.2 mm 1 mps 663 mmHg 90%
    04:00 -2°C° 0.2 mm 1 mps 663 mmHg 90%
    05:00 -2°C° 0.1 mm 1 mps 663 mmHg 90%
    06:00 -2°C° 0.1 mm 1 mps 663 mmHg 89%
    07:00 -3°C° 0.1 mm 1 mps 664 mmHg 89%
    08:00 -2°C° 0 mm 1 mps 664 mmHg 88%
    09:00 -1°C° 0 mm 1 mps 665 mmHg 88%
    10:00 -1°C° 0 mm 1 mps 665 mmHg 87%
    11:00 -1°C° 0.2 mm 1 mps 665 mmHg 86%
    12:00 -1°C° 0.2 mm 1 mps 665 mmHg 85%
    13:00 -1°C° 0.2 mm 1 mps 665 mmHg 84%
    14:00 -1°C° 0.3 mm 1 mps 665 mmHg 87%
    15:00 -2°C° 0.3 mm 1 mps 665 mmHg 90%
    16:00 -2°C° 0.3 mm 1 mps 665 mmHg 93%
    17:00 -2°C° 0.3 mm 1 mps 665 mmHg 94%
    18:00 -3°C° 0.3 mm 1 mps 666 mmHg 95%
    19:00 -4°C° 0.3 mm 1 mps 666 mmHg 96%
    20:00 -4°C° 0.2 mm 1 mps 666 mmHg 96%
    21:00 -4°C° 0.2 mm 1 mps 667 mmHg 97%
    22:00 -6°C° 0.2 mm 1 mps 667 mmHg 97%
    23:00 -6°C° 0.1 mm 1 mps 667 mmHg 96%

    29 January, Tuesday

    Time Temperature Precipitation Wind Pressure Humidity
    00:00 -6°C° 0.1 mm 1 mps 667 mmHg 96%
    01:00 -7°C° 0.1 mm 1 mps 667 mmHg 96%
    02:00 -7°C° 0.1 mm 1 mps 667 mmHg 96%
    03:00 -8°C° 0.1 mm 1 mps 666 mmHg 96%
    04:00 -9°C° 0.1 mm 1 mps 666 mmHg 95%
    05:00 -9°C° 0 mm 1 mps 666 mmHg 93%
    06:00 -10°C° 0 mm 1 mps 666 mmHg 90%
    07:00 -12°C° 0 mm 2 mps 666 mmHg 87%
    08:00 -9°C° 0 mm 1 mps 666 mmHg 85%
    09:00 -7°C° 0 mm 1 mps 666 mmHg 83%
    10:00 -6°C° 0 mm 1 mps 667 mmHg 80%
    11:00 -4°C° 0 mm 1 mps 667 mmHg 76%
    12:00 -2°C° 0 mm 1 mps 667 mmHg 71%
    13:00 -1°C° 0 mm 1 mps 667 mmHg 67%
    14:00 -2°C° 0.1 mm 1 mps 667 mmHg 73%
    15:00 -2°C° 0.1 mm 1 mps 666 mmHg 79%
    16:00 -2°C° 0.1 mm 1 mps 666 mmHg 86%
    17:00 -3°C° 0 mm 1 mps 666 mmHg 86%
    18:00 -4°C° 0 mm 1 mps 667 mmHg 86%
    19:00 -7°C° 0 mm 2 mps 667 mmHg 86%
    20:00 -7°C° 0.2 mm 2 mps 667 mmHg 87%
    21:00 -6°C° 0.2 mm 1 mps 667 mmHg 89%
    22:00 -6°C° 0.2 mm 1 mps 668 mmHg 91%
    23:00 -6°C° 0.1 mm 1 mps 667 mmHg 90%
    Show more